MST,Max TemperatureF,Mean TemperatureF,Min TemperatureF,Max Dew PointF,MeanDew PointF,Min DewpointF,Max Humidity, Mean Humidity, Min Humidity, Max Sea Level PressureIn, Mean Sea Level PressureIn, Min Sea Level PressureIn, Max VisibilityMiles, Mean VisibilityMiles, Min VisibilityMiles, Max Wind SpeedMPH, Mean Wind SpeedMPH, Max Gust SpeedMPH,PrecipitationIn, CloudCover, Events, WindDirDegrees
2012-10-1,77,58,39,28,26,21,61,33,13,30.44,30.38,30.34,10,10,10,14,8,20,0.00,0,,106
2012-10-2,80,60,39,30,24,18,61,29,10,30.35,30.31,30.25,10,10,10,17,8,24,0.00,0,,213
2012-10-3,78,60,41,27,24,21,53,27,12,30.36,30.32,30.29,10,10,9,17,9,23,0.00,0,,209
2012-10-4,73,60,46,32,26,19,46,27,13,30.40,30.36,30.31,10,10,10,22,9,31,0.00,0,,195
2012-10-5,71,56,42,28,25,23,53,30,16,30.36,30.32,30.27,10,10,10,14,7,21,0.00,0,,201
2012-10-6,71,56,41,32,26,19,61,31,15,30.28,30.23,30.18,10,10,10,15,7,21,0.00,0,,205
2012-10-7,71,53,35,28,25,19,65,35,16,30.27,30.23,30.19,10,10,10,13,7,,0.00,0,,189
2012-10-8,69,53,37,36,30,28,70,43,23,30.29,30.25,30.21,10,10,10,16,9,24,0.00,0,,190
2012-10-9,69,54,39,46,34,28,87,49,23,30.29,30.26,30.21,10,10,10,14,8,20,0.00,0,,185
2012-10-10,68,54,41,39,35,32,81,51,26,30.30,30.24,30.18,10,10,10,16,9,23,0.00,0,,155
2012-10-11,62,50,39,48,40,32,93,73,39,30.23,30.16,30.10,10,9,2,28,10,37,0.18,3,,139
2012-10-12,50,41,32,45,36,28,100,78,50,30.29,30.17,30.09,10,8,2,20,10,28,0.17,5,,186
2012-10-13,59,44,28,39,34,28,100,70,42,30.40,30.34,30.27,10,10,10,12,5,,0.00,0,,344
2012-10-14,68,52,35,39,35,32,93,59,30,30.47,30.41,30.36,10,10,6,12,5,,0.00,0,,144
2012-10-15,71,54,37,37,30,21,81,48,16,30.40,30.32,30.25,10,8,1,10,7,,0.00,0,,180
2012-10-16,73,53,33,36,25,10,87,42,9,30.28,30.21,30.13,10,10,0,12,7,,0.00,0,,209
2012-10-17,71,53,35,36,25,14,81,42,12,30.31,30.24,30.19,10,10,10,14,6,18,0.00,0,,164
2012-10-18,71,50,30,21,15,9,60,32,9,30.37,30.33,30.31,10,10,10,10,7,,0.00,0,,159
2012-10-19,75,55,35,25,18,9,60,31,8,30.33,30.27,30.20,10,10,10,13,8,,0.00,0,,181
2012-10-20,68,50,33,32,25,19,60,38,17,30.22,30.14,30.08,10,10,6,17,9,25,0.00,0,,184
2012-10-21,64,54,44,45,36,30,87,54,34,30.13,30.11,30.07,10,10,10,22,9,30,0.00,1,,179
2012-10-22,62,53,44,43,39,32,87,61,32,30.18,30.12,30.09,10,10,10,24,14,32,0.00,0,,187
2012-10-23,62,52,42,41,36,25,87,56,24,30.15,30.10,30.06,10,10,10,25,16,33,0.00,0,,185
2012-10-24,60,46,28,37,15,-4,81,34,9,30.22,30.10,30.06,10,10,10,24,12,34,0.00,0,,204
2012-10-25,55,40,24,18,13,9,59,37,20,30.34,30.27,30.22,10,10,10,16,8,23,0.00,0,,338
2012-10-26,59,42,24,14,6,-2,64,28,10,30.37,30.31,30.25,10,10,10,15,8,22,0.00,0,,96
2012-10-27,66,46,26,12,6,0,43,22,9,30.30,30.26,30.22,10,10,6,12,7,,0.00,0,,152
2012-10-28,68,50,33,14,10,7,41,23,10,30.36,30.31,30.27,10,9,2,12,7,,0.00,0,,183
2012-10-29,68,49,30,16,10,3,51,27,8,30.42,30.38,30.36,10,10,5,12,8,18,0.00,0,,201
2012-10-30,68,48,28,18,9,0,55,25,7,30.39,30.35,30.30,10,7,2,12,8,,0.00,0,,187
2012-10-31,68,50,32,16,10,7,41,25,9,30.36,30.31,30.26,10,8,2,13,9,17,0.00,0,,168